Time,TemperatureF,DewpointF,PressureIn,WindDirection,WindDirectionDegrees,WindSpeedMPH,WindSpeedGustMPH,Humidity,HourlyPrecipIn,Conditions,Clouds,dailyrainin,SoftwareType,DateUTC
2013-07-16 00:02:00,66.9,65.0,30.35,ENE,78,0.0,1.0,92,0.00,,,0.00,weatherlink.com 1.10,2013-07-16 04:02:00,
2013-07-16 00:17:00,66.9,64.0,30.35,ENE,78,0.0,0.0,91,0.00,,,0.00,weatherlink.com 1.10,2013-07-16 04:17:00,
2013-07-16 00:33:00,67.0,64.0,30.36,ENE,78,0.0,0.0,91,0.01,,,0.01,weatherlink.com 1.10,2013-07-16 04:33:00,
2013-07-16 00:48:00,67.1,65.0,30.35,ENE,78,0.0,1.0,91,0.01,,,0.01,weatherlink.com 1.10,2013-07-16 04:48:00,
2013-07-16 01:03:00,67.3,65.0,30.36,ENE,77,0.0,0.0,91,0.01,,,0.01,weatherlink.com 1.10,2013-07-16 05:03:00,
2013-07-16 01:18:00,67.3,65.0,30.36,ENE,67,0.0,2.0,91,0.01,,,0.01,weatherlink.com 1.10,2013-07-16 05:18:00,
2013-07-16 01:33:00,67.1,65.0,30.36,ENE,66,0.0,1.0,91,0.00,,,0.01,weatherlink.com 1.10,2013-07-16 05:33:00,
2013-07-16 01:48:00,67.1,65.0,30.35,ENE,66,0.0,0.0,91,0.00,,,0.01,weatherlink.com 1.10,2013-07-16 05:48:00,
2013-07-16 02:03:00,67.1,65.0,30.35,North,358,0.0,1.0,91,0.00,,,0.01,weatherlink.com 1.10,2013-07-16 06:03:00,
2013-07-16 02:18:00,67.2,65.0,30.35,NNE,12,0.0,1.0,91,0.00,,,0.01,weatherlink.com 1.10,2013-07-16 06:18:00,
2013-07-16 02:33:00,67.1,65.0,30.35,NNW,343,1.0,1.0,91,0.00,,,0.01,weatherlink.com 1.10,2013-07-16 06:33:00,
2013-07-16 02:48:00,66.9,64.0,30.35,NNW,342,0.0,0.0,91,0.00,,,0.01,weatherlink.com 1.10,2013-07-16 06:48:00,
2013-07-16 03:03:00,66.6,64.0,30.35,NNW,343,0.0,0.0,91,0.00,,,0.01,weatherlink.com 1.10,2013-07-16 07:03:00,
2013-07-16 03:18:00,66.4,64.0,30.34,NNW,343,0.0,0.0,91,0.00,,,0.01,weatherlink.com 1.10,2013-07-16 07:18:00,
2013-07-16 03:33:00,66.1,64.0,30.34,NNW,342,0.0,0.0,91,0.00,,,0.01,weatherlink.com 1.10,2013-07-16 07:33:00,
2013-07-16 03:48:00,65.8,63.0,30.34,NNW,343,0.0,0.0,91,0.00,,,0.01,weatherlink.com 1.10,2013-07-16 07:48:00,
2013-07-16 04:03:00,65.6,63.0,30.34,NNW,343,0.0,0.0,90,0.00,,,0.01,weatherlink.com 1.10,2013-07-16 08:03:00,
2013-07-16 04:18:00,65.8,63.0,30.34,NW,326,0.0,2.0,90,0.00,,,0.01,weatherlink.com 1.10,2013-07-16 08:18:00,
2013-07-16 04:33:00,65.7,63.0,30.34,NNW,327,0.0,1.0,90,0.00,,,0.01,weatherlink.com 1.10,2013-07-16 08:33:00,
2013-07-16 04:48:00,65.5,63.0,30.34,NNW,328,0.0,0.0,90,0.00,,,0.01,weatherlink.com 1.10,2013-07-16 08:48:00,
2013-07-16 05:03:00,65.0,62.0,30.34,NNW,328,0.0,0.0,91,0.00,,,0.01,weatherlink.com 1.10,2013-07-16 09:03:00,
2013-07-16 05:18:00,64.4,62.0,30.34,NNW,327,0.0,0.0,91,0.00,,,0.01,weatherlink.com 1.10,2013-07-16 09:18:00,
2013-07-16 05:33:00,64.4,62.0,30.35,NNW,328,0.0,0.0,90,0.00,,,0.01,weatherlink.com 1.10,2013-07-16 09:33:00,
2013-07-16 05:48:00,64.4,62.0,30.35,NNW,328,0.0,0.0,90,0.00,,,0.01,weatherlink.com 1.10,2013-07-16 09:48:00,
2013-07-16 06:03:00,64.3,62.0,30.35,NW,326,1.0,1.0,91,0.00,,,0.01,weatherlink.com 1.10,2013-07-16 10:03:00,
2013-07-16 06:18:00,63.9,61.0,30.35,NW,326,0.0,0.0,91,0.00,,,0.01,weatherlink.com 1.10,2013-07-16 10:18:00,
2013-07-16 06:33:00,63.6,61.0,30.36,NW,326,0.0,0.0,91,0.00,,,0.01,weatherlink.com 1.10,2013-07-16 10:33:00,
2013-07-16 06:48:00,63.5,61.0,30.36,NW,326,0.0,0.0,91,0.00,,,0.01,weatherlink.com 1.10,2013-07-16 10:48:00,
2013-07-16 07:03:00,63.0,60.0,30.36,NW,326,0.0,1.0,91,0.00,,,0.01,weatherlink.com 1.10,2013-07-16 11:03:00,
2013-07-16 07:18:00,63.0,60.0,30.36,WNW,302,0.0,1.0,91,0.00,,,0.01,weatherlink.com 1.10,2013-07-16 11:18:00,
2013-07-16 07:33:00,63.4,61.0,30.36,WNW,302,0.0,1.0,90,0.00,,,0.01,weatherlink.com 1.10,2013-07-16 11:33:00,
2013-07-16 07:48:00,63.8,61.0,30.36,WNW,302,0.0,0.0,90,0.00,,,0.01,weatherlink.com 1.10,2013-07-16 11:48:00,
2013-07-16 08:03:00,64.1,62.0,30.37,WNW,302,0.0,0.0,91,0.00,,,0.01,weatherlink.com 1.10,2013-07-16 12:03:00,
2013-07-16 08:18:00,65.2,62.0,30.37,WNW,302,0.0,0.0,90,0.00,,,0.01,weatherlink.com 1.10,2013-07-16 12:18:00,
2013-07-16 08:33:00,67.9,65.0,30.37,NW,304,0.0,1.0,91,0.00,,,0.01,weatherlink.com 1.10,2013-07-16 12:33:00,
2013-07-16 08:48:00,71.0,68.0,30.37,NW,304,0.0,0.0,90,0.00,,,0.01,weatherlink.com 1.10,2013-07-16 12:48:00,
2013-07-16 09:03:00,73.0,69.0,30.37,NNW,348,0.0,1.0,87,0.00,,,0.01,weatherlink.com 1.10,2013-07-16 13:03:00,
2013-07-16 09:18:00,73.6,69.0,30.37,North,349,1.0,1.0,84,0.00,,,0.01,weatherlink.com 1.10,2013-07-16 13:18:00,
2013-07-16 09:33:00,74.3,67.0,30.37,SSW,196,1.0,3.0,78,0.00,,,0.01,weatherlink.com 1.10,2013-07-16 13:33:00,
2013-07-16 09:48:00,76.1,68.0,30.36,SSW,203,0.0,2.0,75,0.00,,,0.01,weatherlink.com 1.10,2013-07-16 13:48:00,
2013-07-16 10:03:00,75.9,69.0,30.36,SSW,212,1.0,3.0,78,0.00,,,0.01,weatherlink.com 1.10,2013-07-16 14:03:00,
2013-07-16 10:18:00,76.3,68.0,30.36,ENE,61,0.0,3.0,76,0.00,,,0.01,weatherlink.com 1.10,2013-07-16 14:18:00,
2013-07-16 10:33:00,77.2,69.0,30.36,SSE,158,1.0,4.0,75,0.00,,,0.01,weatherlink.com 1.10,2013-07-16 14:33:00,
2013-07-16 10:49:00,77.6,68.0,30.36,SE,142,5.0,6.0,73,0.00,,,0.01,weatherlink.com 1.10,2013-07-16 14:49:00,
2013-07-16 11:04:00,77.6,69.0,30.36,SE,141,0.0,7.0,75,0.00,,,0.01,weatherlink.com 1.10,2013-07-16 15:04:00,
2013-07-16 11:19:00,77.9,67.0,30.36,SW,217,3.0,9.0,69,0.00,,,0.01,weatherlink.com 1.10,2013-07-16 15:19:00,
2013-07-16 11:34:00,78.5,68.0,30.36,SSW,205,3.0,8.0,69,0.00,,,0.01,weatherlink.com 1.10,2013-07-16 15:34:00,
2013-07-16 11:49:00,78.8,69.0,30.35,SW,225,3.0,8.0,72,0.00,,,0.01,weatherlink.com 1.10,2013-07-16 15:49:00,
2013-07-16 12:04:00,79.6,69.0,30.35,South,191,4.0,8.0,69,0.00,,,0.01,weatherlink.com 1.10,2013-07-16 16:04:00,
2013-07-16 12:19:00,79.7,68.0,30.34,SW,222,5.0,10.0,68,0.00,,,0.01,weatherlink.com 1.10,2013-07-16 16:19:00,
2013-07-16 12:34:00,80.0,67.0,30.34,SSE,160,3.0,10.0,64,0.00,,,0.01,weatherlink.com 1.10,2013-07-16 16:34:00,
2013-07-16 12:49:00,79.8,67.0,30.34,SE,139,3.0,8.0,66,0.00,,,0.01,weatherlink.com 1.10,2013-07-16 16:49:00,
2013-07-16 13:04:00,80.2,66.0,30.34,South,177,5.0,10.0,63,0.00,,,0.01,weatherlink.com 1.10,2013-07-16 17:04:00,
2013-07-16 13:19:00,80.3,67.0,30.34,ENE,70,4.0,10.0,63,0.00,,,0.01,weatherlink.com 1.10,2013-07-16 17:19:00,
2013-07-16 13:34:00,80.8,69.0,30.33,East,86,3.0,7.0,67,0.00,,,0.01,weatherlink.com 1.10,2013-07-16 17:34:00,
2013-07-16 13:49:00,81.4,68.0,30.33,ESE,123,5.0,8.0,63,0.00,,,0.01,weatherlink.com 1.10,2013-07-16 17:49:00,
2013-07-16 14:04:00,81.4,69.0,30.33,East,96,3.0,8.0,65,0.00,,,0.01,weatherlink.com 1.10,2013-07-16 18:04:00,
2013-07-16 14:19:00,81.6,68.0,30.32,ENE,74,5.0,9.0,63,0.00,,,0.01,weatherlink.com 1.10,2013-07-16 18:19:00,
2013-07-16 14:34:00,81.8,66.0,30.32,South,188,6.0,7.0,60,0.00,,,0.01,weatherlink.com 1.10,2013-07-16 18:34:00,
2013-07-16 14:49:00,81.9,68.0,30.32,SSW,208,4.0,7.0,63,0.00,,,0.01,weatherlink.com 1.10,2013-07-16 18:49:00,
2013-07-16 15:04:00,82.3,68.0,30.31,ENE,77,3.0,7.0,63,0.00,,,0.01,weatherlink.com 1.10,2013-07-16 19:04:00,
2013-07-16 15:19:00,82.4,68.0,30.31,SSE,148,5.0,7.0,62,0.00,,,0.01,weatherlink.com 1.10,2013-07-16 19:19:00,
2013-07-16 15:34:00,82.0,68.0,30.30,ESE,121,2.0,7.0,62,0.00,,,0.01,weatherlink.com 1.10,2013-07-16 19:34:00,
2013-07-16 15:49:00,82.0,68.0,30.30,SE,141,2.0,8.0,62,0.00,,,0.01,weatherlink.com 1.10,2013-07-16 19:49:00,
2013-07-16 16:04:00,81.7,69.0,30.30,ENE,69,7.0,8.0,66,0.00,,,0.01,weatherlink.com 1.10,2013-07-16 20:04:00,
2013-07-16 16:19:00,81.5,69.0,30.29,ENE,58,5.0,10.0,65,0.00,,,0.01,weatherlink.com 1.10,2013-07-16 20:19:00,
2013-07-16 16:34:00,80.6,69.0,30.29,SW,217,0.0,9.0,67,0.00,,,0.01,weatherlink.com 1.10,2013-07-16 20:34:00,
2013-07-16 16:49:00,81.5,69.0,30.29,ENE,70,7.0,8.0,66,0.00,,,0.01,weatherlink.com 1.10,2013-07-16 20:49:00,
2013-07-16 17:04:00,80.9,69.0,30.29,NNE,25,3.0,9.0,67,0.00,,,0.01,weatherlink.com 1.10,2013-07-16 21:04:00,
2013-07-16 17:19:00,80.0,71.0,30.29,ESE,120,1.0,5.0,73,0.00,,,0.01,weatherlink.com 1.10,2013-07-16 21:19:00,
2013-07-16 17:34:00,79.5,69.0,30.29,ENE,67,3.0,5.0,70,0.00,,,0.01,weatherlink.com 1.10,2013-07-16 21:34:00,
2013-07-16 17:49:00,80.5,70.0,30.28,SSW,211,2.0,6.0,70,0.00,,,0.01,weatherlink.com 1.10,2013-07-16 21:49:00,
2013-07-16 18:04:00,80.1,69.0,30.28,SW,228,0.0,6.0,69,0.00,,,0.01,weatherlink.com 1.10,2013-07-16 22:04:00,
2013-07-16 18:19:00,79.5,69.0,30.28,ENE,63,1.0,6.0,71,0.00,,,0.01,weatherlink.com 1.10,2013-07-16 22:19:00,
2013-07-16 18:34:00,78.9,69.0,30.28,SSW,205,5.0,6.0,72,0.00,,,0.01,weatherlink.com 1.10,2013-07-16 22:34:00,
2013-07-16 18:49:00,77.2,70.0,30.28,East,84,0.0,1.0,77,0.00,,,0.01,weatherlink.com 1.10,2013-07-16 22:49:00,
2013-07-16 19:04:00,76.8,70.0,30.28,SE,139,0.0,1.0,80,0.00,,,0.01,weatherlink.com 1.10,2013-07-16 23:04:00,
2013-07-16 19:19:00,75.5,70.0,30.29,SW,219,0.0,0.0,82,0.00,,,0.01,weatherlink.com 1.10,2013-07-16 23:19:00,
2013-07-16 19:34:00,74.2,70.0,30.29,SW,220,0.0,0.0,86,0.00,,,0.01,weatherlink.com 1.10,2013-07-16 23:34:00,
2013-07-16 19:49:00,73.2,70.0,30.30,SW,219,0.0,1.0,88,0.00,,,0.01,weatherlink.com 1.10,2013-07-16 23:49:00,
2013-07-16 20:04:00,72.3,69.0,30.30,SW,219,0.0,0.0,89,0.00,,,0.01,weatherlink.com 1.10,2013-07-17 00:04:00,
2013-07-16 20:19:00,71.4,69.0,30.31,SW,220,0.0,0.0,91,0.00,,,0.01,weatherlink.com 1.10,2013-07-17 00:19:00,
2013-07-16 20:34:00,70.9,69.0,30.31,SW,219,0.0,1.0,92,0.00,,,0.01,weatherlink.com 1.10,2013-07-17 00:34:00,
2013-07-16 20:49:00,70.2,68.0,30.31,SW,219,0.0,1.0,92,0.00,,,0.01,weatherlink.com 1.10,2013-07-17 00:49:00,
2013-07-16 21:04:00,69.6,67.0,30.30,NW,304,0.0,2.0,92,0.00,,,0.01,weatherlink.com 1.10,2013-07-17 01:04:00,
2013-07-16 21:19:00,69.0,67.0,30.30,NW,304,0.0,0.0,92,0.00,,,0.01,weatherlink.com 1.10,2013-07-17 01:19:00,
2013-07-16 21:34:00,68.4,66.0,30.31,NW,304,0.0,0.0,92,0.00,,,0.01,weatherlink.com 1.10,2013-07-17 01:34:00,
2013-07-16 21:49:00,68.0,66.0,30.32,WNW,303,0.0,0.0,92,0.00,,,0.01,weatherlink.com 1.10,2013-07-17 01:49:00,
2013-07-16 22:04:00,67.5,65.0,30.32,NW,304,0.0,0.0,92,0.00,,,0.01,weatherlink.com 1.10,2013-07-17 02:04:00,
2013-07-16 22:19:00,67.3,65.0,30.32,NW,304,0.0,1.0,91,0.00,,,0.01,weatherlink.com 1.10,2013-07-17 02:19:00,
2013-07-16 22:34:00,67.1,65.0,30.32,NW,312,0.0,1.0,91,0.00,,,0.01,weatherlink.com 1.10,2013-07-17 02:34:00,
2013-07-16 22:49:00,66.5,64.0,30.33,NW,312,0.0,0.0,91,0.00,,,0.01,weatherlink.com 1.10,2013-07-17 02:49:00,
2013-07-16 23:04:00,66.1,64.0,30.34,NW,312,0.0,0.0,91,0.00,,,0.01,weatherlink.com 1.10,2013-07-17 03:04:00,
2013-07-16 23:19:00,65.8,63.0,30.34,NW,312,0.0,0.0,91,0.00,,,0.01,weatherlink.com 1.10,2013-07-17 03:19:00,
2013-07-16 23:34:00,65.6,63.0,30.33,NW,312,0.0,1.0,91,0.00,,,0.01,weatherlink.com 1.10,2013-07-17 03:34:00,
2013-07-16 23:49:00,65.2,63.0,30.32,NW,312,0.0,0.0,91,0.00,,,0.01,weatherlink.com 1.10,2013-07-17 03:49:00,